Avoca, PA
on Wednesday, January 9, 2013

Wednesday
Previous Day Next Day
Daily Summary
 ActualAverageRecord
Temperature
Mean Temperature °F 26°F  
Max Temperature 40°F 33°F 62°F (1998)
Min Temperature 24°F 19°F -7°F (1968)
Degree Days
Heating Degree Days 33 39  
Month to date heating degree days 326 350  
Since 1 July heating degree days 2440 2728  
Cooling Degree Days 0 0  
Month to date cooling degree days 0 0  
Year to date cooling degree days 0 0  
Moisture
Dew Point 26°F   
Average Humidity 78    
Maximum Humidity 85    
Minimum Humidity 70    
Precipitation
Precipitation T in 0.07 in 1.11 in (1978)
Month to date precipitation 0.03 0.64  
Year to date precipitation 0.03 0.64  
Wind
Wind Speed 4 mph   
Max Wind Speed 12 mph   
Max Gust Speed 17 mph   
Visibility 7 miles   
Events Rain   

Key: T is trace of precipitation, MM is missing value
Source: NWS Daily Summary
Time(EST)TemperatureDew PointHumidity Pressure Visibility Wind DirectionWind SpeedGust SpeedPrecipitationEvents Conditions
12:54 AM 28.9°F 21.9°F 75% 30.36 in 8.0 miles ESE 4.6 mph - N/A   Clear
1:54 AM 28.9°F 21.9°F 75% 30.36 in 9.0 miles ESE 3.5 mph - N/A   Clear
2:54 AM 27.0°F 21.0°F 78% 30.35 in 8.0 miles Calm Calm - N/A   Clear
3:54 AM 26.1°F 21.0°F 81% 30.34 in 8.0 miles ESE 4.6 mph - N/A   Clear
4:54 AM 24.1°F 19.9°F 84% 30.34 in 7.0 miles South 3.5 mph - N/A   Clear
5:54 AM 26.1°F 21.0°F 81% 30.33 in 8.0 miles ESE 3.5 mph - N/A   Clear
6:54 AM 24.8°F 19.4°F 80% 30.31 in 7.0 miles Calm Calm - N/A   Clear
7:54 AM 24.1°F 19.9°F 84% 30.34 in 7.0 miles Calm Calm - N/A   Clear
8:54 AM 27.0°F 23.0°F 85% 30.32 in 5.0 miles Calm Calm - N/A   Clear
9:54 AM 28.9°F 23.0°F 78% 30.32 in 6.0 miles WNW 5.8 mph - N/A   Haze
10:54 AM 32.0°F 26.6°F 80% 30.25 in 6.0 miles Calm Calm - N/A   Haze
11:54 AM 32.0°F 26.6°F 80% 30.24 in 4.0 miles Calm Calm - N/A   Haze
12:54 PM 39.0°F 28.9°F 67% 30.19 in 8.0 miles SSW 4.6 mph - 0.00 in Rain Light Rain
1:54 PM 34.0°F 28.0°F 79% 30.13 in 4.0 miles South 4.6 mph - 0.00 in   Haze
2:54 PM 37.9°F 30.0°F 73% 30.14 in 6.0 miles WSW 4.6 mph - N/A   Haze
3:54 PM 39.0°F 30.0°F 70% 30.16 in 6.0 miles SSW 5.8 mph - N/A   Haze
4:54 PM 39.0°F 30.0°F 70% 30.15 in 6.0 miles SW 6.9 mph - N/A   Haze
5:54 PM 37.0°F 30.0°F 76% 30.17 in 6.0 miles SW 5.8 mph - N/A   Haze
6:54 PM 37.9°F 32.0°F 79% 30.20 in 6.0 miles SW 6.9 mph - N/A   Haze
7:54 PM 37.9°F 33.1°F 83% 30.20 in 6.0 miles SSW 8.1 mph - N/A   Haze
8:54 PM 37.9°F 33.1°F 83% 30.21 in 6.0 miles SW 6.9 mph - N/A   Haze
9:54 PM 37.0°F 32.0°F 82% 30.23 in 7.0 miles SW 8.1 mph - N/A   Clear
10:54 PM 37.9°F 30.9°F 76% 30.25 in 8.0 miles SW 9.2 mph - N/A   Clear
11:54 PM 35.1°F 28.9°F 78% 30.29 in 8.0 miles West 8.1 mph - N/A   Clear
Astronomy
Sunrise:07:28 AM (EST) Moon Rise:05:05 AM (EST)1/9
Sunset:04:52 PM (EST) Moon Set:02:51 PM (EST)1/9
Moon Phase
Jan. 09 Jan. 11 Jan. 18 Jan. 26 Feb. 03

Copyright © 2014 The Weather Underground, Inc.